Location: Duac?
(36.9744°N, 30.6500°E)
Time: 06:17:23
(UTC+00:00)

Cosmos 2346 Rocket - Pass Details

Date: 05 August 2024
Orbit: 936 x 978 km, 82.9° (Epoch: 09 September)

Event Time Altitude Azimuth Distance (km) Brightness Sun altitude
Rises 20:04:10 0° 352° (N) 3,672 8.5 -29.5°
Reaches altitude 10° 20:06:41 10° 352° (N) 2,726 7.6 -29.7°
Enters shadow 20:12:50 84° 295° (WNW) 987 4.4 -30.4°
